Regional Weather Roundup
Issued by NWS Kansas City/Pleasant Hill, MO

Home | Current Version | Previous Version | Graphics & Text | Print | Product List | Glossary Off
Versions: 1 2 3 4 5 6 7 8 9 10 11 12 13 14 15 16 17 18 19 20 21 22 23 24 25 26 27 28 29 30 31 32 33 34 35 36 37 38 39 40 41 42 43 44 45 46 47 48 49 50

530
ASUS43 KEAX 260710
RWREAX

WEATHER ROUNDUP FOR EASTERN KANSAS AND NORTHWEST MISSOURI
NATIONAL WEATHER SERVICE KANSAS CITY/PLEASANT HILL MO
200 AM CDT SUN MAR 26 2017

KSZ040-057-103>105-MOZ028-029-037-043-260800-
...KANSAS CITY METROPOLITAN AREA...

CITY           SKY/WX    TMP DP  RH WIND       PRES   REMARKS
K.C. INTL      CLOUDY    44  42  93 NW5       29.87F
K.C. DOWNTOWN  CLOUDY    46  42  86 NW6       29.87S
LEES SUMMIT    CLOUDY    45  43  93 W10       29.87R
OLATHE - IXD   CLOUDY    44  42  93 NW8       29.88F
OLATHE - OJC   CLOUDY    43  43 100 NW7       29.87S
LAWRENCE       CLOUDY    44  42  93 NW3       29.89F

$$

MOZ001>008-011>017-020>025-030>033-038>040-044>046-053-054-260800-
...NORTHERN AND CENTRAL MISSOURI...

CITY           SKY/WX    TMP DP  RH WIND       PRES   REMARKS
ST. JOSEPH     CLOUDY    43  43 100 NW6       29.89S
MOSBY          CLOUDY    45  43  93 N6        29.87S
WARRENSBURG    CLOUDY    46  45  93 NW3       29.85F
WHITEMAN AFB   CLOUDY    48  48 100 CALM      29.84S
CLINTON        CLOUDY    48  48 100 CALM      29.86F
SEDALIA        CLOUDY    49  32  52 NW8       29.86S
WARSAW         NOT AVBL
CHILLICOTHE      N/A     45  44  97 NW6       29.86S
KIRKSVILLE     CLOUDY    46  46 100 NW8       29.81F

$$

MOZ041-047>049-056>058-063>065-088>090-097-260800-
...EASTERN AND SOUTHERN MISSOURI...

CITY           SKY/WX    TMP DP  RH WIND       PRES   REMARKS
ST. LOUIS INTL CLOUDY    55  50  83 SW8       29.86R
SPIRIT OF STL  CLOUDY    53  49  86 SW10      29.85S
COLUMBIA       CLOUDY    50  50 100 SW12      29.83S FOG
JEFFERSON CITY CLOUDY    52  48  86 SW9       29.85S FOG
ROLLA          CLOUDY    48  46  93 SW10      29.86R
OSAGE BEACH    LGT RAIN N/A N/A N/A SW8       29.88S
SPRINGFIELD    CLOUDY    47  44  90 SW6       29.87F
BRANSON        CLOUDY    46  46 100 CALM      29.91S
JOPLIN         CLOUDY    47  44  90 SW7       29.90F
WEST PLAINS    CLOUDY    49  46  90 W6        29.90F

$$

IAZ060-094-KSZ022-034>040-054-083-096-NEZ052-066-093-260800-
...KANSAS...SOUTHEAST NEBRASKA AND IOWA...

CITY           SKY/WX    TMP DP  RH WIND       PRES   REMARKS
TOPEKA         CLOUDY    44  43  96 N3        29.89F
MANHATTAN      CLOUDY    44  41  89 CALM      29.90S
EMPORIA        CLOUDY    44  44 100 W3        29.89S
CHANUTE        CLOUDY    47  44  90 W8        29.90F
WICHITA        CLOUDY    43  43 100 NW3       29.91S FOG
OMAHA          CLOUDY    41  37  86 N6        29.90F
LINCOLN        CLOUDY    41  39  93 N8        29.91F
FALLS CITY     CLOUDY    42  41  96 N3        29.88F
LAMONI         CLOUDY    42  42 100 N8        29.83F FOG
DES MOINES     DRIZZLE   42  40  92 NE9       29.86F FOG

$$





USA.gov is the U.S. government's official web portal to all federal, state and local government web resources and services.